STARLINK-11259 [DTC] (60721 NORAD) Tracking and Keplerian Element Data

This shows tracking and keplerian element data for the satellite.

Feedback or suggestion? Click here.




ElementValue
Catalog60721
NameSTARLINK-11259 [DTC]
Epoch Orbit828
Epoch Day286.84666283
Epoch Year2024
RAAN124.6493
Inclination53.1585
Eccentricity3.63E-05
Argument of Perigee73.9231
Mean Anonmoly286.1827
Mean Motion15.69754031
Decay Rate0.00022138
L11 60721U 24152B 24286.84666283 .00022138 00000+0 18675-3 0 9990
L22 60721 53.1585 124.6493 0000363 73.9231 286.1827 15.69754031 8284



Live tracking and technical data element details for STARLINK-11259 [DTC] (NORAD 60721). STARLINK-11259 [DTC] can be tracked NOW for your location showing map with azimuth and elevation plus other details from your city location.







IsCatalogInMostPopularTable: catalog: 60721, numindb: 9
Update: records affected: 1



GetName: 60721 STARLINK-11259 [DTC]

Hit Count: updated at: Fri, 06 Dec 2024 11:26:31 GMT